Location: Berg
(48.4333°N, 13.9167°E)
Time: 06:18:52
(UTC+00:00)

COSMOS 2406 - Pass Details

Date: 18 September 2020
Orbit: 844 x 863 km, 71.0° (Epoch: 22 October)

Event Time Altitude Azimuth Distance (km) Brightness Sun altitude
Rises 19:03:13 0° 335° (NNW) 3,415 7.2 -19.0°
Reaches altitude 10° 19:05:58 10° 346° (NNW) 2,476 6.2 -19.4°
Maximum altitude 19:11:00 32° 48° (NE) 1,427 4.2 -20.1°
Enters shadow 19:12:19 29° 74° (ENE) 1,519 4.1 -20.3°
